Lid_Strength_Index
4 4 3 3 3 3 3 3 3 3 2 2 3 2 2 2 4 8 10 6 5 3 4 8 8 9 8 8 6 6 10 12 12 11 11 9 10 9 9 9 9 7 5 4 8
4 4 4 4 4 3 3 3 3 3 3 3 3 3 3 3 9 10 7 4 3 4 9 9 10 10 10 9 7 8 11 12 10 10 10 10 11 10 11 10 10 8 6 7 8
3 3 4 4 4 4 4 4 3 3 3 3 3 3 3 4 10 12 5 5 4 6 8 8 9 10 11 9 10 9 11 11 11 10 11 11 12 11 11 11 9 9 8 9 9
4 4 3 3 4 4 4 3 4 4 4 4 4 3 3 8 13 10 5 5 6 8 9 9 10 11 12 12 11 12 11 11 11 12 12 12 12 13 11 11 10 9 9 9 9
4 4 4 4 4 4 3 4 4 3 3 3 4 3 7 11 13 8 7 7 8 9 10 10 11 11 13 12 12 12 12 12 12 12 13 13 13 13 12 10 9 10 10 9 9
3 4 4 4 4 4 4 4 4 4 4 4 4 4 10 13 9 9 9 9 9 9 10 10 11 11 12 13 13 13 13 13 13 13 13 14 13 14 11 11 11 11 10 10 10
3 3 3 3 3 4 3 4 3 4 4 4 4 7 12 12 10 9 9 10 9 9 10 9 9 11 12 14 12 13 15 14 14 14 14 13 13 14 11 12 12 11 11 10 10
2 2 3 3 3 3 3 3 3 4 4 5 5 9 13 10 9 10 9 10 9 9 9 9 9 11 12 12 14 15 15 15 15 14 14 14 13 12 12 13 12 12 11 11 10
2 3 3 3 3 2 3 3 4 4 5 5 9 10 13 8 11 10 9 10 9 9 9 10 11 14 14 15 15 15 15 16 15 14 14 14 14 12 12 13 12 12 11 11 11
2 3 3 3 3 3 3 6 5 6 7 8 9 11 11 12 10 9 9 9 10 11 11 11 12 13 15 15 15 15 16 16 16 15 15 15 15 13 11 12 12 12 12 12 11
2 2 2 3 3 3 6 8 9 9 10 13 13 12 12 10 9 10 10 10 10 12 14 13 14 15 15 16 16 17 17 17 15 15 16 15 15 14 12 12 12 12 13 12 11
2 2 2 3 3 5 8 11 12 12 13 12 11 12 10 10 13 12 9 13 13 15 14 14 15 16 15 15 16 17 17 16 16 16 16 16 16 13 13 14 13 13 12 12 11
2 2 2 3 4 6 9 10 8 10 14 14 12 12 12 11 14 13 11 13 14 15 15 15 16 15 16 16 17 16 17 18 17 16 16 17 14 13 14 14 13 12 12 12 11
2 2 3 3 6 7 9 8 8 10 13 14 15 13 12 12 14 11 11 12 14 16 15 15 15 16 16 17 16 18 16 17 17 17 17 17 17 13 14 14 13 12 12 11 11
2 2 3 4 8 10 8 8 8 10 19 15 15 11 12 14 14 13 11 13 15 15 16 16 16 16 17 16 16 17 16 17 17 19 20 19 19 13 15 14 13 12 12 11 10
2 2 3 5 6 8 8 10 11 14 19 16 15 16 16 15 14 13 13 11 13 15 15 16 14 15 15 15 16 15 17 18 18 18 19 21 19 14 13 14 14 14 12 11 11
2 3 4 5 7 6 7 9 15 18 13 15 17 16 17 17 16 15 16 16 16 15 16 17 16 15 15 16 15 16 18 18 19 18 17 20 20 15 13 14 14 13 12 12 11
1 3 5 6 6 6 7 10 17 14 15 16 16 16 17 17 17 16 17 17 16 17 17 16 17 16 15 16 17 17 18 17 20 19 18 22 20 15 14 14 13 13 12 12 11
1 3 4 5 5 4 7 14 15 13 14 15 16 16 17 17 17 17 17 17 17 16 16 18 18 16 16 15 16 18 19 18 21 27 22 18 17 15 14 14 14 13 13 12 11
2 3 4 2 3 4 10 13 12 10 12 12 13 14 15 17 16 17 17 16 17 16 15 17 18 17 16 15 16 17 16 19 19 21 21 18 19 16 14 14 14 14 13 12 12
2 5 4 3 3 7 13 12 10 8 9 11 12 12 14 15 15 15 14 15 15 16 15 16 17 19 17 17 17 18 18 18 19 19 20 20 16 14 13 12 13 13 13 12 12
3 10 5 4 10 11 11 10 9 10 9 11 11 11 12 13 13 15 14 14 14 13 16 15 17 19 17 17 17 17 17 17 18 19 21 22 19 14 13 13 14 13 13 12 12
6 8 5 5 11 11 11 11 10 11 10 11 11 10 11 12 12 12 14 13 13 13 13 15 17 18 17 19 18 18 17 17 19 19 20 20 17 15 15 14 13 13 12 12 12
7 11 10 9 9 9 10 11 11 9 10 9 9 10 12 13 11 12 12 12 11 11 12 11 15 16 17 16 18 19 18 17 18 20 19 19 17 14 12 12 11 11 12 12 13
8 10 9 12 11 10 9 11 13 11 10 9 10 10 10 13 13 13 12 12 11 10 10 11 17 17 16 16 17 18 18 17 19 18 19 17 16 14 12 12 12 12 12 14 14
10 10 10 11 10 10 10 12 12 11 11 12 11 10 9 11 10 12 11 11 10 10 12 12 14 18 20 17 17 18 17 17 17 17 17 17 17 13 12 12 13 13 13 14 14
5 6 8 10 11 12 12 12 11 9 9 9 9 10 11 10 8 7 7 8 8 10 11 13 15 17 16 19 20 20 20 17 16 15 16 19 16 13 13 13 13 14 14 14 14